Regional Weather Roundup
Issued by NWS

Home | Current Version | Previous Version | Graphics & Text | Print | Product List | Glossary Off
Versions: 1 2 3 4 5 6 7 8 9 10 11 12 13 14 15 16 17 18 19 20 21 22 23 24 25 26 27 28 29 30 31 32 33 34 35 36 37 38 39 40 41 42 43 44 45 46 47 48 49 50

000
ASUS43 KDMX 230807
RWRIA

WEATHER ROUNDUP FOR IOWA
NATIONAL WEATHER SERVICE DES MOINES IA
200 AM CST SUN NOV 23 2014

NOTE: "FAIR" INDICATES FEW OR NO CLOUDS BELOW 12,000 FEET WITH NO
SIGNIFICANT WEATHER AND/OR OBSTRUCTIONS TO VISIBILITY.

* - THESE STATIONS ARE NOT NWS STATIONS...THUS NOT UNDER NWS
QUALITY CONTROL.  THEY ALSO DO NOT REPORT WEATHER SUCH
AS PRECIPITATION OR FOG.

IAZ001>003-012>014-020>022-031>034-043>046-230900-
   NORTHWEST IOWA

CITY           SKY/WX    TMP DP  RH WIND       PRES   REMARKS
CARROLL *      CLOUDY    54  52  94 SW18G25   29.52F
CHEROKEE *     MOCLDY    52  52 100 S10       29.49S
DENISON *      CLOUDY    54  54 100 S14       29.50F
LE MARS *      CLOUDY    50  50 100 S12       29.47F
ORANGE CITY *  MOCLDY    52  48  87 S12       29.46F FOG
SHELDON *      CLOUDY    50  50 100 S14G21    29.45S
SIOUX CITY     CLOUDY    54  51  90 S12       29.47F
SPENCER        CLOUDY    50  48  93 S10       29.48S FOG
STORM LAKE *   MOCLDY    52  50  93 SW18G26   29.50S
$$

IAZ055>058-069>071-079>083-090>094-230900-
   SOUTHWEST IOWA

CITY           SKY/WX    TMP DP  RH WIND       PRES   REMARKS
ATLANTIC *     CLOUDY    54  52  94 S14G21    29.54F
AUDUBON *      MOCLDY    52  46  82 S15       29.55F
CLARINDA *     CLOUDY    54  52  94 S13       29.60F
COUNCIL BLFS * CLOUDY    55  55 100 S17G25    29.52S
CRESTON *      CLOUDY    52  52 100 S14       29.60F FOG
HARLAN  *      CLOUDY    54  54 100 S16       29.57S
LAMONI         CLOUDY    52  50  93 S10       29.63F
RED OAK *      CLOUDY    54  52  94 S16       29.55F
SHENANDOAH *   CLOUDY    54  52  94 S15       29.57F
$$

IAZ047>049-059>061-072>074-084-230900-
   CENTRAL IOWA

CITY           SKY/WX    TMP DP  RH WIND       PRES   REMARKS
AMES           CLOUDY    52  49  89 S12       29.57F
ANKENY *       CLOUDY    54  52  94 S10G16    29.59F
CHARITON *     CLOUDY    54  50  87 S15       29.63F
DES MOINES     CLOUDY    54  50  86 S12       29.60F
GRINNELL*      CLOUDY    52  50  93 S9        29.63F
KNOXVILLE *    CLOUDY    54  50  87 S14       29.61F
MARSHALLTOWN   CLOUDY    52  50  93 S17       29.59F
PELLA *        CLOUDY    54  50  87 S9        29.64F
PERRY *        CLOUDY    52  50  93 S16       29.55F
$$

IAZ004>006-015-016-023>025-035-036-230900-
   NORTH CENTRAL IOWA

CITY           SKY/WX    TMP DP  RH WIND       PRES   REMARKS
ALGONA *       CLOUDY    52  52 100 S15       29.51F
CLARION *      CLOUDY    50  50 100 S16G22    29.54F FOG
ESTHERVILLE    CLOUDY    50  49  96 S16       29.48F
FORT DODGE *   CLOUDY    52  48  87 S16       29.54F
MASON CITY     CLOUDY    50  49  96 S17G23    29.55F
FOREST CITY *  CLOUDY    50  50 100 S13       29.53S
IOWA FALLS *   CLOUDY    50  48  93 S12       29.58F FOG
$$

IAZ007>011-017>019-026>030-037>042-050>054-066-230900-
   NORTHEAST IOWA

CITY           SKY/WX    TMP DP  RH WIND       PRES   REMARKS
CEDAR RAPIDS   CLOUDY    51  50  96 S12       29.65F
CHARLES CITY * CLOUDY    50  50 100 S16       29.58F FOG
CLINTON *      CLOUDY    50  46  87 S10       29.75F
DECORAH *      CLOUDY    52  48  87 SW12G20   29.60F
DUBUQUE        CLOUDY    47  47 100 S16       29.68F FOG
MONTICELLO *   CLOUDY    50  50 100 S12       29.67F
OELWEIN *      CLOUDY    50  48  93 S15       29.62F
WATERLOO       CLOUDY    51  49  92 S9        29.60F
$$

IAZ064-065-067-068-078-230900-
   EAST CENTRAL IOWA

CITY           SKY/WX    TMP DP  RH WIND       PRES   REMARKS
DAVENPORT      CLOUDY    52  47  83 S17       29.72F
IOWA CITY      CLOUDY    52  50  93 S12       29.70F
MT. PLEASANT * CLOUDY    52  48  87 S10       29.71F
MUSCATINE *    CLOUDY    52  48  87 S12       29.71F
QUAD CITIES    CLOUDY    53  48  83 S10       29.72F
$$

IAZ062-063-075>077-085>089-095>099-230900-
   SOUTHEAST IOWA

CITY           SKY/WX    TMP DP  RH WIND       PRES   REMARKS
BURLINGTON     CLOUDY    53  50  89 S15       29.72F
FAIRFIELD *    CLOUDY    54  50  87 S13       29.69S
FORT MADISON * CLOUDY    55  52  88 S13       29.73F
KEOKUK *       CLOUDY    54  50  87 S15G23    29.72S
OSKALOOSA *    CLOUDY    54  50  87 S13       29.66F
CENTERVILLE *  CLOUDY    54  54 100 S13       29.67F
OTTUMWA        CLOUDY    54  49  83 S12       29.66F
WASHINGTON *   CLOUDY    54  54 100 S14G22    29.69S
$$

ABBREVIATIONS USED IN REMARKS
   TC - TEMPERATURES IN CELSIUS
  WCI - WIND CHILL INDEX
   HX - HEAT INDEX
  VSB - VISIBILITY
$$




USA.gov is the U.S. government's official web portal to all federal, state and local government web resources and services.